VE7ALB Weather Reports


time (UTC)temp
C
wind
direction
speed
KPH
gust
KPH
rain 1hr
cm
rain 24hr
cm
rain mn
cm
humidity
%
barometer
mb
20260506132017 9 0.0 3.2 0.00 0.00 0.00 89 1017.0
20260506131017 9 0.0 0.0 0.00 0.00 0.00 88 1016.9
20260506130017 9 0.0 0.0 0.00 0.00 0.00 88 1016.8
20260506125017 9 0.0 0.0 0.00 0.00 0.00 88 1016.6
20260506124037 9 0.0 0.0 0.00 0.00 0.00 87 1016.5
20260506123039 9 0.0 0.0 0.00 0.00 0.00 87 1016.6
20260506122017 10 0.0 0.0 0.00 0.00 0.00 87 1016.6
20260506121017 10 0.0 0.0 0.00 0.00 0.00 86 1016.6
20260506120020 10 0.0 0.0 0.00 0.00 0.00 86 1016.5
20260506115017 10 0.0 0.0 0.00 0.00 0.00 86 1016.5
20260506114039 10 0.0 0.0 0.00 0.00 0.00 86 1016.4
20260506113017 10 0.0 0.0 0.00 0.00 0.00 87 1016.1
20260506112017 10 0.0 3.2 0.00 0.00 0.00 87 1016.0
20260506111017 10 0.0 1.6 0.00 0.00 0.00 87 1015.9
20260506110100 10 0.0 0.0 0.00 0.00 0.00 87 1015.6
20260506105017 10 0.0 0.0 0.00 0.00 0.00 87 1015.5
20260506104017 10 0.0 0.0 0.00 0.00 0.00 87 1015.4
20260506103017 10 0.0 0.0 0.00 0.00 0.00 86 1015.3
20260506102019 10 0.0 0.0 0.00 0.00 0.00 86 1015.1
20260506101017 10 0.0 0.0 0.00 0.00 0.00 85 1015.1
20260506100017 10 0.0 0.0 0.00 0.00 0.00 85 1014.9
20260506095017 10 0.0 0.0 0.00 0.00 0.00 85 1014.8
20260506094017 10 0.0 0.0 0.00 0.00 0.00 85 1014.8
20260506093017 10 0.0 0.0 0.00 0.00 0.00 84 1014.6
20260506092037 10 0.0 0.0 0.00 0.00 0.00 84 1014.7
20260506091017 11 0.0 0.0 0.00 0.00 0.00 84 1014.6
20260506090017 11 0.0 0.0 0.00 0.00 0.00 83 1014.7
20260506085018 11 0.0 0.0 0.00 0.00 0.00 83 1014.6
20260506084039 11 0.0 0.0 0.00 0.00 0.00 83 1014.5
20260506083017 11 0.0 0.0 0.00 0.00 0.00 82 1014.5
20260506082017 11 0.0 0.0 0.00 0.00 0.00 82 1014.5
20260506081017 11 0.0 0.0 0.00 0.00 0.00 82 1014.5
20260506073017 12 0.0 0.0 0.00 0.00 0.00 79 1014.3
20260506072017 12 0.0 0.0 0.00 0.00 0.00 79 1014.2
20260506071017 12 0.0 4.8 0.00 0.00 0.00 78 1014.1
20260506062037 13 0.0 0.0 0.00 0.00 0.00 75 1013.6
20260506061017 13 0.0 0.0 0.00 0.00 0.00 74 1013.6
20260506051017 15 0.0 3.2 0.00 0.00 0.00 68 1013.2
20260506045037 15 0.0 11.3 0.00 0.00 0.00 66 1013.1
20260506044017 15 0.0 11.3 0.00 0.00 0.00 65 1013.0
20260506043017 16 0.0 4.8 0.00 0.00 0.00 65 1012.9
20260506042017 16 203 1.6 6.4 0.00 0.00 0.00 64 1012.8
20260506041017 16 0.0 8.0 0.00 0.00 0.00 64 1012.8
20260506040017 16 0.0 4.8 0.00 0.00 0.00 63 1012.7
20260506035038 16 0.0 4.8 0.00 0.00 0.00 63 1012.6
20260506034037 17 0.0 4.8 0.00 0.00 0.00 62 1012.5
20260506033017 17 0.0 3.2 0.00 0.00 0.00 62 1012.4
20260506032037 18 180 1.6 4.8 0.00 0.00 0.00 60 1012.4
20260506031017 18 0.0 4.8 0.00 0.00 0.00 58 1012.3
20260506030100 18 0.0 1.6 0.00 0.00 0.00 58 1012.3
20260506025018 19 0.0 8.0 0.00 0.00 0.00 57 1012.2
20260506024016 19 0.0 4.8 0.00 0.00 0.00 56 1012.2
20260506023017 20 0.0 8.0 0.00 0.00 0.00 55 1012.2
20260506022057 20 0.0 4.8 0.00 0.00 0.00 54 1012.3
20260506021017 20 158 1.6 6.4 0.00 0.00 0.00 53 1012.3
20260506020017 21 0.0 8.0 0.00 0.00 0.00 52 1012.3
20260506015017 21 158 1.6 6.4 0.00 0.00 0.00 51 1012.3
20260506014018 21 0.0 3.2 0.00 0.00 0.00 50 1012.3
20260506013017 22 180 1.6 6.4 0.00 0.00 0.00 49 1012.4
20260506012017 22 135 1.6 6.4 0.00 0.00 0.00 48 1012.3
20260506011017 23 158 1.6 4.8 0.00 0.00 0.00 46 1012.4
20260506010017 23 135 1.6 9.7 0.00 0.00 0.00 45 1012.5
20260506005017 23 203 1.6 9.7 0.00 0.00 0.00 44 1012.5
20260506004017 23 135 1.6 4.8 0.00 0.00 0.00 45 1012.5
20260506003040 23 158 1.6 6.4 0.00 0.00 0.00 45 1012.6
20260506002017 23 135 3.2 9.7 0.00 0.00 0.00 45 1012.7
20260506001037 23 135 3.2 8.0 0.00 0.00 0.00 46 1012.8
20260506000017 23 158 3.2 8.0 0.00 0.00 0.00 45 1012.9
20260505235016 23 135 4.8 9.7 0.00 0.00 0.00 47 1013.0
20260505234015 23 135 3.2 8.0 0.00 0.00 0.00 46 1013.1
20260505233015 22 135 3.2 9.7 0.00 0.00 0.00 49 1013.2
20260505232015 22 158 4.8 9.7 0.00 0.00 0.00 50 1013.2
20260505231015 22 135 3.2 11.3 0.00 0.00 0.00 51 1013.4
20260505230015 22 158 3.2 9.7 0.00 0.00 0.00 51 1013.6
20260505225015 22 135 3.2 9.7 0.00 0.00 0.00 52 1013.6
20260505224016 21 135 3.2 9.7 0.00 0.00 0.00 53 1013.7
20260505223015 21 135 4.8 9.7 0.00 0.00 0.00 53 1013.8
20260505222016 21 135 3.2 8.0 0.00 0.00 0.00 54 1013.9
20260505221015 21 135 4.8 9.7 0.00 0.00 0.00 54 1014.0
20260505220016 20 135 4.8 9.7 0.00 0.00 0.00 55 1014.1
20260505215015 20 158 3.2 9.7 0.00 0.00 0.00 56 1014.2
20260505214015 20 135 4.8 9.7 0.00 0.00 0.00 58 1014.2
20260505213036 19 135 4.8 11.3 0.00 0.00 0.00 59 1014.2
20260505212015 19 135 4.8 12.9 0.00 0.00 0.00 59 1014.4
20260505211038 18 135 3.2 9.7 0.00 0.00 0.00 61 1014.4
20260505210037 18 135 4.8 9.7 0.00 0.00 0.00 62 1014.5
20260505205015 18 135 3.2 9.7 0.00 0.00 0.00 63 1014.6
20260505204057 17 135 3.2 11.3 0.00 0.00 0.00 65 1014.6
20260505203015 17 135 4.8 9.7 0.00 0.00 0.00 66 1014.6
20260505202017 17 135 4.8 11.3 0.00 0.00 0.00 67 1014.7
20260505201017 16 135 4.8 12.9 0.00 0.00 0.00 67 1014.7
20260505200015 16 135 4.8 12.9 0.00 0.00 0.00 68 1014.7
20260505195017 16 158 4.8 8.0 0.00 0.00 0.00 68 1014.7
20260505194015 16 158 4.8 12.9 0.00 0.00 0.00 68 1014.7
20260505193016 16 135 4.8 11.3 0.00 0.00 0.00 68 1014.7
20260505192015 16 158 4.8 14.5 0.00 0.00 0.00 68 1014.8
20260505191015 16 158 6.4 12.9 0.00 0.00 0.00 67 1014.7
20260505190017 16 135 4.8 12.9 0.00 0.00 0.00 67 1014.7
20260505185015 16 135 4.8 11.3 0.00 0.00 0.00 66 1014.7
20260505184037 16 158 4.8 11.3 0.00 0.00 0.00 67 1014.6
20260505183017 16 158 4.8 11.3 0.00 0.00 0.00 67 1014.6
20260505182015 16 158 4.8 12.9 0.00 0.00 0.00 67 1014.6
20260505181036 16 158 4.8 11.3 0.00 0.00 0.00 67 1014.6
20260505180017 16 158 4.8 11.3 0.00 0.00 0.00 68 1014.5
20260505175019 16 135 6.4 17.7 0.00 0.00 0.00 69 1014.5
20260505174017 16 135 4.8 17.7 0.00 0.00 0.00 68 1014.5
20260505173057 16 135 4.8 12.9 0.00 0.00 0.00 68 1014.5
20260505172017 16 135 4.8 11.3 0.00 0.00 0.00 67 1014.4
20260505171018 16 158 3.2 12.9 0.00 0.00 0.00 69 1014.4
20260505170017 16 158 4.8 9.7 0.00 0.00 0.00 69 1014.3
20260505165017 16 135 4.8 9.7 0.00 0.00 0.00 69 1014.3
20260505164019 15 158 4.8 9.7 0.00 0.00 0.00 70 1014.2
20260505163017 15 158 3.2 8.0 0.00 0.00 0.00 70 1014.2
20260505162018 15 135 1.6 6.4 0.00 0.00 0.00 72 1014.1
20260505161020 15 135 3.2 8.0 0.00 0.00 0.00 72 1014.1
20260505153017 14 135 1.6 6.4 0.00 0.00 0.00 75 1013.8
20260505152017 13 135 3.2 6.4 0.00 0.00 0.00 76 1013.8
20260505151019 13 0.0 4.8 0.00 0.00 0.00 76 1013.6